Location: McFarlands Corners
(41.4117°N, 81.3382°W)
Time: 13:21:43
(UTC+00:00)

Courier 1B Rocket - Pass Details

Date: 23 February 2026
Orbit: 920 x 1201 km, 28.2° (Epoch: 10 March)

Event Time Altitude Azimuth Distance (km) Brightness Sun altitude
Rises 23:39:35 0° 242° (WSW) 3,575 9.5 -6.5°
Reaches altitude 10° 23:42:42 10° 228° (SW) 2,612 8.2 -7.1°
Maximum altitude 23:47:32 24° 177° (S) 1,808 6.5 -8.0°
Drops below altitude 10° 23:52:23 10° 126° (SE) 2,614 6.8 -8.9°
Enters shadow 23:53:50 - 119° (ESE) 3,044 7.1 -9.1°
Sets 23:55:30 0° 113° (ESE) 3,577 - -9.4°
